sat.trackr.live / text

‹ back to catalog

STARLINK-36783

NORAD 67873 · 2026-034Z

PAYLOAD ACTIVE UNKNOWN

§ Identity

Operator
Country
US
Launch date
2026-02-20
Launch site
AFETR
Launch vehicle
Mass (kg)
RCS (m²)

Purposes: comms

External: N2YO · Heavens-Above · Gunter

§ Orbital elements

Epoch: 2026-09-19T08:52:56.643456Z

Period
93.85 min
Inclination
53.1588°
Eccentricity
0.0001168
Mean motion
15.34396030 rev/d
Perigee alt
461.9 km
Apogee alt
463.5 km
Semi-major
6,840.9 km
B*
4.4503e-4
RAAN
19.3203°
Arg perigee
91.8266°
Mean anomaly
268.2870°
Rev number
3,376

§ Raw data

STARLINK-367831 67873U 26034Z   26262.37010004  .00014688  00000+0  44503-3 0  99942 67873  53.1588  19.3203 0001168  91.8266 268.2870 15.34396030 33765

JSON: /api/v1/satellites/67873 · /tle

For live sub-satellite position, see the globe view (requires WebGL).

§ Visibility from observer

Set your observer location to see the next 7 days of passes ≥ 10°. The values pass through the URL so the page stays shareable.

No JS? Fill the form by hand. The geolocation button needs JavaScript.